GFSSW_250_spd_000.txt.gz
Wind_Speed
28 27 27 28 27 26 26 26 27 28 27 28 30 31 30 29 28 26 24 22 23 23 22 22 24 26 26 24 22 18 22 20 22 24 25 26 27 30 33 35 34 30 32 30 29
28 29 29 29 28 27 25 25 26 26 26 26 28 28 29 28 24 23 22 20 21 20 20 20 21 21 19 16 13 13 16 6 12 13 16 17 18 26 29 29 30 34 36 34 34
27 29 30 30 30 29 27 25 25 24 25 26 27 27 27 25 22 22 22 24 23 22 21 21 19 21 20 14 15 17 17 13 15 12 15 14 18 24 24 23 24 25 33 37 35
27 28 31 32 31 29 29 28 26 26 24 24 24 26 26 27 24 25 25 24 24 22 21 22 23 20 22 23 24 21 23 21 23 16 17 20 23 28 27 19 28 25 22 26 38
30 29 29 29 31 31 30 27 26 26 25 25 26 27 29 33 26 28 29 26 26 27 25 25 25 23 25 26 24 25 28 28 28 25 23 22 22 31 31 20 27 28 26 23 22
34 32 32 29 27 27 27 27 28 27 27 25 26 28 32 39 32 29 29 29 27 28 26 27 29 28 29 30 29 29 32 34 35 30 29 25 25 33 34 27 33 31 32 32 29
38 38 34 34 32 28 29 30 29 27 29 28 27 28 31 40 36 34 31 32 32 30 29 28 26 26 29 33 31 31 29 34 41 37 35 31 29 40 39 35 34 37 34 34 36
40 43 41 39 39 37 33 32 31 24 24 23 26 27 30 41 39 38 35 35 34 34 32 31 29 30 31 34 31 32 28 28 39 39 35 29 25 39 38 36 37 39 42 36 34
48 45 44 42 44 44 42 38 36 31 28 26 26 25 28 39 42 40 40 42 40 36 37 35 35 34 39 45 35 38 27 29 34 48 32 30 26 34 39 39 37 42 45 41 38
54 51 49 48 47 47 44 41 41 41 40 34 35 34 33 36 40 44 44 43 39 40 39 38 35 39 46 50 41 40 37 35 35 50 37 26 25 31 38 38 41 44 44 45 43
59 57 57 52 51 53 52 49 44 40 36 36 37 42 42 44 47 51 49 47 45 45 44 44 42 43 51 48 39 39 39 40 44 48 37 31 27 33 39 44 47 46 46 44 45
56 61 62 60 58 55 54 54 52 51 48 48 49 49 48 50 50 53 54 54 53 55 60 51 47 53 47 48 51 53 53 48 46 52 46 38 29 33 37 42 46 49 52 50 51
56 62 64 66 64 63 62 59 54 50 51 52 54 49 50 54 54 56 55 57 60 60 58 55 57 61 61 59 60 60 58 55 49 51 47 45 33 32 35 42 45 45 49 54 54
65 64 58 60 66 62 69 71 72 64 54 47 58 61 64 62 62 64 63 62 62 64 59 59 65 65 63 63 75 64 72 64 54 54 50 50 30 34 39 48 56 54 50 51 54
71 70 69 68 70 63 74 73 79 77 61 62 56 66 70 72 72 69 69 73 78 74 73 73 72 75 76 76 77 74 79 79 75 71 60 51 51 45 55 52 52 56 60 62 61
73 73 76 83 83 78 82 68 77 74 66 76 78 73 71 73 77 74 74 76 80 79 73 80 84 79 80 81 85 88 84 85 92 80 78 81 78 41 56 59 64 63 66 65 65
88 85 80 80 93 88 85 83 77 72 69 75 84 84 82 79 73 80 90 91 83 86 87 86 85 91 87 91 90 91 98 94 92 96 86 94 96 75 78 79 79 83 83 77 78
86 91 86 88 86 98 96 97 87 77 81 85 85 97 86 91 84 87 93 90 89 88 91 94 84 90 93 95 95 95 101 106 106 104 105 108 108 99 98 89 91 95 100 100 97
95 95 90 95 93 96 99 101 94 88 87 96 91 96 89 98 95 93 96 92 96 95 100 97 97 95 96 98 101 104 107 108 117 119 123 113 112 113 105 104 100 105 102 108 109
102 98 98 102 96 101 106 97 96 98 101 102 99 100 97 99 106 108 106 100 100 104 108 113 117 107 109 110 114 120 118 119 121 130 132 130 123 122 110 103 110 109 110 110 111
110 109 105 109 109 108 109 104 105 101 101 109 108 112 110 107 113 116 114 113 108 115 118 125 122 116 120 119 125 126 125 128 129 134 141 141 136 115 108 107 110 116 115 113 110
119 117 113 111 119 119 111 110 110 104 110 120 114 124 117 119 128 124 129 130 126 130 128 128 134 136 133 131 134 132 135 137 136 136 139 145 146 121 117 115 119 114 116 112 111
130 123 122 128 121 122 124 125 124 121 125 127 131 130 132 134 137 139 144 144 141 138 138 143 150 147 149 149 141 146 144 140 135 135 140 147 142 126 131 129 123 122 119 116 115
127 129 120 126 137 138 137 139 137 134 133 138 139 140 139 142 146 147 149 150 136 151 160 159 159 154 156 157 149 144 133 130 133 134 136 139 141 132 131 133 136 130 126 120 125
150 152 151 150 146 149 149 152 150 146 149 150 149 155 157 161 161 164 160 159 160 158 159 161 159 147 145 143 137 135 125 118 111 115 136 131 127 125 116 120 121 119 116 119 122
156 154 157 159 158 158 158 160 156 155 160 162 168 165 165 166 166 163 154 158 159 157 152 140 138 134 130 121 127 118 112 110 114 118 125 114 112 109 109 106 108 108 105 105 91
157 157 163 164 163 164 163 164 164 164 165 168 168 161 151 147 145 149 144 141 141 135 131 130 128 125 126 122 127 119 108 115 109 108 114 117 112 108 105 104 103 106 106 102 96

GFSSW_250_spd_003.txt.gz
Wind_Speed
26 29 29 29 28 28 28 27 27 27 27 29 29 29 29 29 27 27 25 21 20 20 19 18 19 20 21 18 18 16 18 14 12 16 17 18 17 16 21 20 22 19 22 29 27
27 27 26 28 26 27 28 28 27 25 25 27 28 28 28 29 26 26 23 20 19 20 20 21 21 19 19 20 19 15 19 12 10 10 16 16 16 21 24 19 19 21 17 21 26
28 28 27 29 29 28 29 28 28 27 25 25 26 28 28 28 25 24 23 21 21 19 17 18 19 19 20 22 20 20 21 20 17 13 16 17 21 27 25 19 15 27 19 19 20
30 30 28 28 26 27 29 30 29 26 27 26 26 26 26 28 22 22 23 22 21 20 20 18 18 18 20 21 20 23 26 26 24 20 18 20 24 33 27 22 22 27 26 22 21
30 32 31 32 29 28 28 27 26 26 23 22 22 24 25 28 21 23 25 25 23 23 22 22 22 18 23 22 20 22 24 26 26 25 21 19 20 35 31 25 25 28 30 28 23
29 29 33 34 32 31 28 25 26 23 22 23 22 24 26 34 25 26 27 27 25 26 26 24 22 21 24 23 20 23 24 26 25 20 19 24 25 30 35 28 31 32 35 36 33
33 34 33 35 36 36 33 30 29 26 25 24 22 23 26 34 28 25 25 26 28 27 27 25 24 26 26 29 28 26 23 28 29 23 21 20 22 27 30 27 30 33 35 36 34
39 41 40 39 36 37 39 37 37 35 30 30 23 20 28 36 31 28 27 28 28 27 28 30 28 28 33 34 32 29 22 28 37 32 19 16 17 30 31 29 30 30 35 37 37
44 43 44 44 45 44 41 42 44 43 42 36 31 24 29 36 35 33 33 27 24 27 29 31 29 29 32 34 29 32 26 30 37 44 29 20 18 30 36 32 34 36 35 35 37
50 50 48 47 49 51 50 44 40 42 41 42 41 41 36 41 42 43 41 39 38 37 35 37 34 36 43 37 33 36 31 28 30 41 36 32 28 33 35 36 38 41 42 42 39
53 54 54 55 54 55 53 48 49 45 44 43 43 37 43 41 42 47 48 46 43 43 42 39 39 43 46 48 47 43 40 33 36 40 33 35 33 36 40 42 47 48 46 43 44
56 60 58 61 67 62 60 57 58 51 49 48 44 44 48 47 50 55 56 54 54 50 50 46 43 52 47 51 50 42 42 45 44 45 38 33 32 36 41 47 52 53 52 47 47
62 54 63 67 67 69 62 60 58 57 50 52 54 51 51 48 45 53 58 57 55 55 55 52 55 57 56 57 61 61 61 61 45 44 46 37 25 31 36 44 52 50 49 49 48
68 65 66 60 70 72 68 66 66 61 51 48 55 62 64 67 65 67 71 63 62 63 65 60 64 62 62 65 67 65 73 65 64 62 51 48 41 41 39 45 49 51 52 55 62
75 73 74 75 79 73 71 70 66 67 63 59 51 56 65 70 71 75 77 76 73 69 71 68 71 69 70 72 75 74 79 82 84 68 58 57 56 49 54 51 49 55 62 67 73
81 79 80 78 84 86 78 74 80 73 52 61 74 72 77 76 73 76 77 76 75 80 74 79 78 72 76 79 87 78 76 82 85 87 81 78 72 53 65 72 75 78 84 82 88
85 84 85 84 83 87 87 75 75 69 68 71 73 73 80 80 80 82 77 78 82 84 79 73 80 77 73 88 82 91 94 91 92 88 84 89 83 68 80 85 89 90 96 95 91
94 89 90 91 89 91 92 92 83 81 84 81 80 81 74 85 91 87 98 86 85 89 86 87 80 86 88 85 98 96 93 100 105 100 96 101 98 82 85 95 100 106 108 109 109
100 95 96 100 98 102 95 90 87 86 89 91 91 90 88 84 87 95 89 95 89 96 103 98 85 89 93 98 96 99 100 104 112 115 118 112 110 104 92 102 109 115 115 116 117
107 103 102 106 108 106 101 94 94 97 102 104 102 101 97 100 100 100 100 94 99 100 103 106 104 95 102 101 105 110 110 110 113 122 123 128 123 124 111 111 116 118 120 122 120
106 107 108 104 110 109 106 103 104 104 106 107 102 105 105 109 104 108 108 104 105 105 107 110 119 102 110 109 114 119 123 121 131 134 135 136 136 129 126 111 104 116 118 120 121
120 114 117 120 119 119 117 113 111 108 115 120 117 117 118 121 121 119 113 115 115 113 118 117 124 124 118 117 127 128 129 134 142 139 137 143 141 141 135 131 127 119 119 112 111
132 129 130 133 134 132 128 124 123 118 121 125 124 122 123 124 127 120 118 120 121 124 126 123 129 136 134 128 132 140 142 143 140 148 156 152 150 134 152 144 135 125 118 114 110
140 139 135 137 128 126 127 125 125 121 121 125 127 124 118 125 126 131 126 127 132 136 136 140 148 154 151 149 149 150 152 156 159 152 147 141 136 140 127 117 116 117 112 103 95
127 125 134 143 140 142 145 142 135 134 130 131 132 132 134 140 141 143 147 151 153 152 153 161 163 162 163 160 157 160 154 132 121 123 132 124 125 121 120 113 110 110 108 107 103
119 122 121 124 127 135 142 144 146 149 147 149 154 154 155 155 157 156 159 160 160 156 157 157 162 159 156 154 153 140 125 126 123 123 127 127 124 123 121 113 108 102 100 102 104
120 117 116 114 113 113 120 130 137 147 149 151 151 151 153 158 158 153 146 150 147 147 142 138 143 148 140 133 141 135 120 123 122 118 118 118 119 116 113 109 102 96 96 95 94

GFSSW_250_spd_006.txt.gz
Wind_Speed
24 26 25 26 28 28 28 28 28 29 29 28 30 30 30 29 28 29 27 24 23 20 19 18 18 17 17 17 17 19 17 12 16 16 17 16 16 19 16 14 11 19 17 17 18
28 27 27 26 26 27 26 26 27 28 29 28 28 29 30 32 30 29 27 26 22 20 17 15 16 16 16 17 19 20 17 13 14 15 20 20 20 24 20 14 16 20 21 20 18
30 30 29 28 27 26 27 27 26 26 27 29 29 28 28 29 28 26 27 26 22 20 19 17 15 14 16 17 17 21 17 16 16 17 19 20 22 31 23 19 21 27 25 23 23
31 33 32 31 29 28 27 26 26 25 25 27 26 29 30 30 25 22 24 23 21 21 21 21 18 17 19 20 20 24 18 14 11 12 15 17 22 34 24 20 27 28 33 28 24
30 32 33 32 31 30 30 30 29 28 25 25 25 26 28 31 20 23 25 24 23 24 24 23 22 22 25 26 21 24 23 15 15 13 10 16 23 34 30 21 28 31 33 36 33
26 30 32 33 33 34 33 32 32 31 27 26 24 26 31 37 27 26 28 28 27 28 28 26 26 25 28 29 24 27 23 23 19 15 15 15 20 25 29 21 27 28 34 33 38
30 29 27 31 29 32 34 35 34 32 31 28 26 26 31 35 33 31 28 29 30 29 29 29 28 26 29 31 30 29 28 29 30 24 15 11 24 26 26 24 28 33 34 34 33
34 32 33 33 33 35 32 34 36 36 36 37 34 33 38 43 37 35 33 32 31 31 31 30 27 29 33 33 30 30 29 26 36 31 21 16 23 32 27 30 34 38 39 37 36
40 38 37 39 40 38 38 38 37 37 35 38 41 41 45 48 48 44 39 37 35 32 31 31 28 30 33 32 29 32 25 27 30 40 23 18 28 37 37 33 40 43 45 42 38
46 45 46 44 44 44 41 39 39 38 37 38 35 38 41 48 54 54 54 50 45 40 38 39 38 39 44 36 32 34 32 30 31 38 26 23 25 32 39 38 43 49 49 46 43
49 48 49 48 49 48 48 48 47 48 49 48 42 42 44 44 47 55 57 54 54 51 45 43 42 48 49 44 43 43 42 39 38 41 30 29 27 30 32 38 43 46 47 49 50
57 55 51 53 50 52 54 51 51 52 53 54 58 50 47 50 48 53 56 58 59 58 59 55 48 56 54 52 47 44 45 43 46 45 37 36 34 42 43 45 43 43 47 50 49
65 60 60 58 59 61 56 54 50 51 53 58 61 58 57 54 53 59 58 58 58 60 59 51 50 54 57 58 56 54 55 55 49 52 54 47 52 44 48 50 48 53 53 49 49
60 65 64 64 66 64 61 62 61 63 53 54 55 60 65 64 64 65 65 63 61 59 60 59 64 64 64 67 68 63 62 59 61 60 59 54 51 61 61 65 60 59 55 55 51
69 68 68 65 65 65 67 61 63 63 60 62 61 68 66 70 71 72 73 72 72 72 71 69 68 63 64 66 70 67 71 66 62 62 65 61 63 59 66 72 67 64 65 60 66
73 74 75 69 71 69 70 73 71 71 68 71 74 70 74 73 70 77 76 73 76 79 80 83 80 72 74 73 75 75 73 77 76 72 63 66 66 63 68 67 79 77 76 74 76
77 77 76 78 76 75 75 77 78 82 75 76 86 86 75 84 88 77 80 76 75 72 74 72 79 75 77 84 86 84 84 82 82 85 75 78 75 66 76 77 76 80 87 86 88
75 81 78 83 81 79 78 84 88 80 82 88 92 88 92 95 99 91 87 84 90 86 89 86 82 75 89 90 90 85 92 95 89 79 88 85 80 75 84 83 85 90 89 93 97
88 84 90 84 88 90 93 100 97 93 93 93 96 98 99 96 103 101 91 88 90 93 103 100 82 90 84 88 95 101 91 101 107 97 100 89 87 79 94 93 95 96 99 100 102
102 93 94 107 101 102 105 99 103 112 111 106 101 102 103 106 107 103 101 94 97 99 102 106 109 98 101 103 99 103 108 102 103 111 116 107 98 97 94 98 104 106 107 112 114
112 112 106 111 113 110 110 118 123 122 124 127 123 122 118 106 110 111 102 96 99 103 109 109 114 105 109 106 106 110 109 113 115 119 116 118 119 109 110 109 106 115 118 122 124
109 110 116 116 120 114 118 127 130 132 134 132 130 128 120 114 111 116 112 111 112 111 112 116 123 118 111 111 114 113 118 118 114 116 125 130 130 131 130 125 126 129 126 129 132
124 121 129 125 125 129 141 138 128 130 122 117 116 113 112 113 116 115 115 114 116 117 119 119 118 122 122 121 120 126 119 123 128 132 135 134 139 140 142 142 143 147 153 148 137
134 134 135 137 143 139 127 123 121 117 119 115 114 119 118 121 118 118 119 120 120 122 124 128 129 130 134 134 125 129 131 131 135 139 144 152 154 149 149 153 160 149 137 127 112
140 145 141 142 132 127 123 115 115 116 118 117 114 115 113 114 116 118 121 124 124 124 130 132 133 133 133 135 141 141 143 145 152 156 162 161 156 136 140 137 130 128 125 124 126
147 140 129 128 124 124 124 121 122 123 120 118 115 118 119 117 117 112 119 116 124 133 138 142 148 146 150 148 153 158 158 153 146 139 131 139 132 131 122 122 122 121 118 116 117
136 132 129 125 126 124 120 120 117 116 114 113 112 113 114 116 117 116 114 116 117 116 116 117 124 130 123 123 130 122 118 128 131 122 126 126 124 121 115 116 116 114 110 108 106

GFSSW_250_spd_009.txt.gz
Wind_Speed
30 28 27 26 26 27 28 30 30 30 29 29 31 31 31 32 33 33 30 29 28 27 23 21 20 20 19 19 16 18 16 14 16 17 16 16 16 19 14 8 15 19 19 19 16
30 31 31 29 28 28 27 28 28 28 28 28 29 30 31 30 30 31 31 30 29 28 24 21 19 19 20 20 19 21 14 13 16 18 20 18 20 23 24 11 18 23 24 22 19
29 30 31 33 31 30 28 27 27 28 28 28 29 29 31 34 32 30 30 30 27 26 23 22 21 21 22 22 20 26 19 16 14 17 18 20 23 27 32 14 16 23 26 27 24
30 31 31 33 33 33 31 30 28 25 24 25 26 29 30 33 32 29 31 31 28 26 25 24 25 25 28 27 23 26 20 20 19 15 15 18 25 29 36 21 25 29 31 32 31
31 30 31 34 33 34 33 32 30 29 27 27 27 29 31 34 30 26 31 30 29 28 27 27 28 29 32 31 28 30 29 24 25 18 17 21 27 29 34 26 25 30 33 33 28
29 29 30 31 32 33 33 34 32 31 30 31 30 30 32 36 30 27 32 33 32 32 31 33 33 31 35 34 32 33 32 31 29 27 26 22 31 28 34 31 33 31 34 34 30
26 29 30 32 31 30 29 29 30 30 33 32 33 33 36 38 34 32 31 32 35 36 38 37 36 36 38 36 35 35 34 36 37 35 31 23 32 34 33 34 38 39 36 32 31
31 31 32 33 31 30 29 31 31 31 30 33 33 34 38 42 43 41 39 40 38 38 40 40 39 39 39 38 36 36 33 36 41 41 31 28 32 39 40 36 40 42 44 38 37
34 34 34 34 33 33 33 35 33 35 35 35 34 32 35 40 42 43 45 45 44 45 43 43 42 41 44 43 39 39 34 39 40 49 34 29 36 44 47 43 45 47 42 41 38
40 38 37 39 39 38 40 36 36 35 37 38 38 40 42 48 47 44 45 46 47 46 50 50 48 46 50 45 39 40 37 38 38 49 40 36 36 41 45 45 46 48 48 46 42
45 44 44 45 43 43 42 43 43 41 42 43 43 47 48 49 48 51 53 51 48 50 49 54 54 53 58 52 50 47 45 44 47 46 44 45 39 40 42 49 49 47 46 44 42
52 49 49 50 50 50 48 50 52 50 46 50 50 50 52 52 52 55 58 58 59 58 53 51 51 56 58 59 58 57 55 54 53 55 51 50 47 47 47 52 52 52 54 59 58
60 60 55 52 53 54 55 57 57 55 51 55 59 54 54 56 56 57 61 59 60 63 65 62 56 55 60 63 63 62 59 54 55 57 58 56 51 54 56 57 60 59 58 57 56
60 60 58 57 53 53 53 55 56 58 59 53 56 57 62 60 61 63 65 65 66 68 68 63 68 65 63 63 63 59 62 62 61 61 62 60 57 62 65 66 63 64 66 65 67
60 59 58 56 54 55 56 58 62 63 53 52 52 55 62 63 67 65 66 68 72 73 65 61 64 67 69 73 77 75 75 74 71 67 64 65 67 61 66 73 68 69 72 72 71
65 64 64 62 59 59 60 62 67 65 59 69 68 66 65 69 71 78 78 80 80 86 86 89 80 82 75 72 72 76 76 72 80 79 69 76 78 69 70 72 72 74 82 81 78
68 69 66 64 66 66 69 69 70 70 70 72 77 75 72 81 81 80 83 84 89 87 96 98 92 91 94 88 89 88 82 84 83 74 73 85 77 70 79 81 80 85 84 83 86
74 70 73 76 74 74 74 77 81 77 77 81 89 84 86 86 90 93 93 94 100 105 110 108 102 96 96 97 103 99 97 95 94 94 85 84 76 83 89 84 85 87 89 93 89
80 80 82 83 82 84 83 89 91 88 85 92 90 91 97 95 97 97 102 101 110 113 112 102 101 108 106 99 102 101 98 103 104 100 106 96 93 88 95 100 93 94 91 92 91
92 91 88 93 91 96 97 93 95 93 102 102 100 100 104 109 108 111 111 112 116 111 116 114 111 102 107 103 103 105 101 101 107 113 112 105 106 102 100 107 101 101 101 107 97
98 92 98 102 101 100 97 102 106 110 111 109 107 112 111 112 114 116 118 124 121 118 118 113 115 98 101 91 96 105 110 103 113 116 123 123 113 103 105 109 112 109 108 105 117
99 104 103 110 112 111 107 103 106 99 105 110 115 119 117 124 128 127 127 129 118 109 108 109 116 109 99 103 107 107 112 118 119 118 127 128 126 115 115 114 118 120 120 123 120
113 112 114 114 114 111 111 111 111 111 119 122 123 126 130 134 135 137 124 111 111 110 102 109 115 114 109 110 114 121 118 121 125 128 129 132 131 129 129 128 129 129 131 134 132
122 126 127 119 113 118 118 118 123 127 128 129 131 136 137 136 133 121 116 115 110 110 111 115 120 118 117 113 111 118 120 123 128 133 138 138 138 136 137 144 143 139 137 136 137
130 132 120 123 128 126 129 132 136 135 136 138 136 133 128 126 124 120 118 117 115 116 115 120 118 116 116 115 117 118 118 118 122 125 137 141 146 142 145 145 149 150 148 146 139
133 133 143 135 134 137 140 141 138 138 136 131 131 129 127 126 125 121 121 121 117 117 114 116 115 115 111 115 117 117 111 113 120 118 124 130 129 124 133 129 125 124 123 121 119
142 141 142 142 144 142 139 139 137 135 136 133 131 131 130 128 127 124 124 122 118 114 116 116 118 119 111 118 118 112 110 118 118 117 122 125 122 119 124 122 118 120 123 120 117

GFSSW_250_spd_012.txt.gz
Wind_Speed
27 29 29 29 29 27 25 25 25 27 29 29 29 29 29 29 29 29 29 28 29 29 28 26 25 25 24 21 20 20 16 13 14 15 17 20 19 22 14 6 12 22 18 15 12
29 30 31 31 30 30 28 27 26 27 27 29 29 27 27 27 28 29 29 29 30 29 28 27 25 25 24 23 22 22 18 16 17 17 19 19 22 27 28 10 10 23 19 19 14
29 31 32 32 32 32 31 29 27 26 26 27 29 30 29 29 27 27 29 31 31 30 27 27 27 26 26 26 25 25 25 20 18 20 22 20 21 27 33 23 13 25 25 25 24
28 31 33 33 32 33 32 30 28 28 27 26 25 25 25 26 26 25 30 30 30 30 30 29 28 28 29 28 27 29 32 25 23 21 23 25 25 25 33 31 25 24 30 30 24
27 28 32 33 32 33 34 33 32 31 29 26 27 27 28 29 28 24 30 31 29 28 28 28 29 29 31 31 32 34 35 34 30 27 25 30 31 27 34 35 30 27 28 30 30
29 28 28 31 32 32 30 30 31 30 28 27 27 28 28 31 29 25 28 29 28 29 31 31 32 32 36 37 37 40 36 39 36 33 30 31 36 31 36 40 39 34 31 31 30
31 32 29 28 28 29 29 30 29 26 26 25 26 27 30 33 32 30 27 29 32 32 31 33 34 35 36 41 42 42 38 41 41 39 36 36 40 39 39 40 44 43 39 36 32
31 30 29 30 29 29 31 30 32 30 29 29 30 32 33 37 35 35 33 33 35 37 37 38 37 38 39 41 41 43 40 41 45 43 39 36 39 44 42 42 47 45 43 43 39
30 31 30 30 29 30 30 31 32 35 33 34 35 35 36 40 40 39 37 35 38 35 33 36 40 42 46 44 43 46 44 46 46 51 44 37 37 48 48 46 48 50 49 46 39
36 35 34 34 32 33 34 33 36 36 37 37 36 36 35 39 40 43 44 45 44 45 43 43 40 39 46 47 47 48 48 48 48 53 51 43 42 40 52 53 50 51 50 46 48
42 40 36 38 36 38 38 38 38 38 40 42 43 43 40 44 44 47 46 48 48 47 48 48 49 47 49 49 47 53 53 52 55 55 53 54 49 49 49 56 56 54 49 46 53
45 45 45 44 44 46 46 46 47 44 44 49 48 46 49 52 51 53 55 53 51 52 52 51 54 55 54 60 56 55 51 54 55 60 58 59 55 58 58 60 55 58 58 58 57
50 50 49 50 51 52 50 54 53 52 49 51 51 50 55 54 52 54 60 58 55 56 55 50 45 51 55 54 56 55 57 60 61 62 63 66 65 65 68 69 63 61 66 65 66
51 58 57 57 57 56 57 56 58 55 53 52 53 54 56 59 55 51 49 54 54 55 57 49 59 62 57 59 62 59 69 67 62 62 65 67 66 61 69 69 67 69 74 71 71
56 54 59 64 62 62 61 61 59 56 54 53 51 55 58 52 58 58 61 59 56 61 61 62 62 73 72 74 75 75 83 83 85 81 64 63 74 70 76 73 66 72 78 77 80
63 63 61 60 59 57 58 62 61 60 56 49 55 54 58 61 62 68 73 69 68 68 69 70 72 77 77 80 86 89 91 93 98 98 87 81 80 58 68 81 81 82 81 81 82
66 67 66 66 66 64 67 62 66 61 62 60 58 62 64 67 73 75 74 76 78 76 78 80 80 85 88 90 91 95 99 104 104 101 96 89 90 75 81 79 79 81 88 93 92
72 74 72 70 72 73 73 70 67 66 67 69 68 70 71 74 75 79 82 82 85 89 91 92 91 94 96 93 99 105 111 110 106 94 90 90 92 90 91 87 89 90 87 88 88
78 77 77 76 70 70 74 73 78 78 77 76 78 79 84 86 86 84 84 83 88 86 94 96 100 103 107 107 111 116 117 102 103 99 100 94 91 98 99 100 98 95 95 99 97
86 79 72 75 78 76 80 80 83 89 84 87 86 83 84 92 95 93 99 95 94 97 100 106 111 110 111 115 119 118 114 101 101 103 112 102 93 88 97 101 105 106 103 105 108
93 82 83 86 79 86 89 90 93 94 93 93 92 93 97 104 105 101 103 105 106 104 107 114 118 116 120 120 122 119 104 101 111 108 110 105 99 97 98 100 104 108 108 114 109
89 84 83 95 98 97 98 102 96 100 102 100 97 99 105 113 116 103 101 106 111 108 115 120 129 121 118 114 116 112 110 107 115 114 112 112 110 106 117 116 116 118 118 116 117
92 92 100 107 106 106 108 107 106 102 108 109 107 107 114 114 123 111 114 123 118 119 122 127 128 126 115 113 115 116 116 115 114 116 114 119 113 112 122 124 121 123 126 131 130
102 106 114 113 114 114 112 111 108 107 117 119 118 118 121 124 122 120 125 125 123 128 128 129 126 120 121 117 119 122 120 117 117 118 120 117 119 111 116 123 122 118 119 120 121
110 122 124 121 120 120 121 122 118 119 122 125 124 128 127 129 120 131 130 128 133 133 130 130 127 127 128 130 127 122 115 112 118 122 125 117 120 114 118 117 118 118 117 117 114
127 127 124 126 123 126 129 124 127 128 129 128 131 135 135 134 136 133 132 138 135 131 130 129 133 135 133 132 127 121 111 117 118 117 118 119 117 117 115 116 116 115 116 117 115
129 133 135 130 128 131 128 129 131 135 141 134 136 135 133 132 138 136 134 133 136 137 136 140 140 138 128 133 128 115 117 119 117 116 116 117 115 114 114 113 112 112 115 114 112